Port Huron, MI

10:18 AM EST on November 13, 2019 (GMT -0500)
Saint Clair County International

Weather History for KPHN - June, 2019

Change the Weather History Date:

Wednesday, June 12, 2019

  Actual Average (KMTC) Record (KMTC)
Temperature  
Mean Temperature 64 °F -  
Max Temperature 77 °F 77 °F 94 °F (1954)
Min Temperature 50 °F 56 °F 44 °F (2006)
Degree Days  
Heating Degree Days 2    
Growing Degree Days 14 (Base 50)    
Moisture  
Dew Point 45 °F    
Average Humidity 53    
Maximum Humidity 87    
Minimum Humidity 23    
Precipitation  
Precipitation 0.00 in - - ()
Sea Level Pressure  
Sea Level Pressure 29.99 in    
Wind  
Wind Speed 4 mph (SSE)    
Max Wind Speed 15 mph    
Max Gust Speed 21 mph    
Visibility 10 miles    
Events Rain    
Averages and records for this station are not official NWS values.
T = Trace of Precipitation, MM = Missing Value Source: NWS Daily Summary

Daily Weather History Graph

Daily Weather History Graph

Search for Another Location

Airport or City:

Astronomy

Jun. 12, 2019 Rise Set
Actual Time 5:50 AM EDT 9:09 PM EDT
Civil Twilight 5:15 AM EDT 9:44 PM EDT
Nautical Twilight 4:30 AM EDT 10:29 PM EDT
Astronomical Twilight 3:34 AM EDT 11:26 PM EDT
Moon 4:07 PM EDT (6/12) 3:13 AM EDT (6/12)
Length of Visible Light 16h 28m
Length of Day
15h 18m
Waxing Gibbous, 76% of the Moon is Illuminated
Jun 12
Waxing Gibbous
Jun 17
Full
Jun 25
Last Quarter
Jul 2
New
Jul 9
First Quarter

Hourly Weather History & Observations

Time (EDT) Temp. Dew Point Humidity Pressure Visibility Wind Dir Wind Speed Gust Speed Precip Events Conditions
12:17 AM 57.2 °F 48.2 °F 72% 30.12 in 10.0 mi SSE 3.5 mph - N/A   Clear
12:35 AM 57.2 °F 48.2 °F 72% 30.13 in 10.0 mi Calm Calm - N/A   Clear
12:55 AM 55.4 °F 48.2 °F 77% 30.12 in 10.0 mi Calm Calm - N/A   Clear
1:15 AM 55.4 °F 48.2 °F 77% 30.12 in 10.0 mi Calm Calm - N/A   Clear
1:20 AM 53.6 °F 48.2 °F 82% 30.12 in 10.0 mi Calm Calm - N/A   Clear
1:38 AM 53.6 °F 48.2 °F 82% 30.12 in 10.0 mi Calm Calm - N/A   Clear
1:56 AM 53.6 °F 48.2 °F 82% 30.11 in 10.0 mi Calm Calm - N/A   Clear
2:15 AM 53.6 °F 48.2 °F 82% 30.11 in 10.0 mi Calm Calm - N/A   Clear
2:16 AM 53.6 °F 48.2 °F 82% 30.11 in 10.0 mi Calm Calm - N/A   Clear
2:35 AM 53.6 °F 48.2 °F 82% 30.11 in 10.0 mi Calm Calm - N/A   Clear
2:36 AM 53.6 °F 48.2 °F 82% 30.11 in 10.0 mi Calm Calm - N/A   Clear
2:59 AM 53.6 °F 46.4 °F 77% 30.11 in 10.0 mi South 3.5 mph - N/A   Clear
3:17 AM 53.6 °F 46.4 °F 77% 30.10 in 10.0 mi South 3.5 mph - N/A   Clear
3:35 AM 53.6 °F 46.4 °F 77% 30.10 in 10.0 mi South 3.5 mph - N/A   Clear
3:36 AM 53.6 °F 46.4 °F 77% 30.10 in 10.0 mi South 3.5 mph - N/A   Clear
3:55 AM 53.6 °F 46.4 °F 77% 30.09 in 10.0 mi South 3.5 mph - N/A   Clear
3:56 AM 53.6 °F 46.4 °F 77% 30.09 in 10.0 mi South 3.5 mph - N/A   Clear
4:15 AM 53.6 °F 46.4 °F 77% 30.09 in 10.0 mi Calm Calm - N/A   Clear
4:37 AM 51.8 °F 46.4 °F 82% 30.09 in 10.0 mi Calm Calm - N/A   Clear
4:56 AM 51.8 °F 46.4 °F 82% 30.09 in 10.0 mi Calm Calm - N/A   Clear
5:15 AM 50.0 °F 46.4 °F 87% 30.09 in 10.0 mi Calm Calm - N/A   Clear
5:16 AM 50.0 °F 46.4 °F 87% 30.09 in 10.0 mi Calm Calm - N/A   Clear
5:35 AM 50.0 °F 46.4 °F 87% 30.09 in 10.0 mi South 3.5 mph - N/A   Clear
5:36 AM 50.0 °F 46.4 °F 87% 30.09 in 10.0 mi South 3.5 mph - N/A   Clear
5:59 AM 51.8 °F 46.4 °F 82% 30.09 in 10.0 mi Calm Calm - N/A   Clear
6:16 AM 50.0 °F 46.4 °F 87% 30.09 in 10.0 mi Calm Calm - N/A   Clear
6:35 AM 51.8 °F 46.4 °F 82% 30.09 in 10.0 mi Calm Calm - N/A   Clear
6:55 AM 53.6 °F 48.2 °F 82% 30.08 in 10.0 mi Calm Calm - N/A   Clear
6:56 AM 53.6 °F 48.2 °F 82% 30.08 in 10.0 mi Calm Calm - N/A   Clear
7:15 AM 57.2 °F 50.0 °F 77% 30.08 in 10.0 mi Calm Calm - N/A   Clear
7:20 AM 57.2 °F 50.0 °F 77% 30.09 in 10.0 mi South 3.5 mph - N/A   Clear
7:38 AM 59.0 °F 50.0 °F 72% 30.08 in 10.0 mi South 6.9 mph - N/A   Clear
7:56 AM 60.8 °F 51.8 °F 72% 30.08 in 10.0 mi South 5.8 mph - N/A   Clear
8:15 AM 62.6 °F 51.8 °F 68% 30.08 in 10.0 mi South 6.9 mph - N/A   Clear
8:16 AM 62.6 °F 51.8 °F 68% 30.07 in 10.0 mi South 8.1 mph - N/A   Clear
8:35 AM 64.4 °F 51.8 °F 64% 30.07 in 10.0 mi South 10.4 mph - N/A   Clear
8:36 AM 64.4 °F 51.8 °F 64% 30.07 in 10.0 mi South 9.2 mph - N/A   Clear
8:59 AM 66.2 °F 51.8 °F 60% 30.07 in 10.0 mi South 9.2 mph - N/A   Clear
9:16 AM 68.0 °F 51.8 °F 56% 30.07 in 10.0 mi South 9.2 mph - N/A   Clear
9:35 AM 69.8 °F 51.8 °F 53% 30.06 in 10.0 mi South 8.1 mph - N/A   Clear
9:36 AM 69.8 °F 51.8 °F 53% 30.06 in 10.0 mi South 6.9 mph - N/A   Clear
9:55 AM 71.6 °F 48.2 °F 43% 30.05 in 10.0 mi South 11.5 mph 16.1 mph N/A   Clear
10:15 AM 71.6 °F 46.4 °F 41% 30.05 in 10.0 mi South 12.7 mph - N/A   Clear
10:38 AM 73.4 °F 48.2 °F 41% 30.04 in 10.0 mi South 9.2 mph - N/A   Clear
10:56 AM 73.4 °F 48.2 °F 41% 30.03 in 10.0 mi South 9.2 mph - N/A   Clear
11:15 AM 73.4 °F 48.2 °F 41% 30.03 in 10.0 mi SSW 9.2 mph - N/A   Clear
11:35 AM 73.4 °F 48.2 °F 41% 30.03 in 10.0 mi South 9.2 mph 16.1 mph N/A   Clear
11:59 AM 75.2 °F 48.2 °F 38% 30.02 in 10.0 mi South 12.7 mph 19.6 mph N/A   Clear
12:17 PM 75.2 °F 48.2 °F 38% 30.02 in 10.0 mi SSW 12.7 mph - N/A   Clear
12:35 PM 75.2 °F 46.4 °F 36% 30.01 in 10.0 mi SSW 11.5 mph 17.3 mph N/A   Clear
12:55 PM 75.2 °F 46.4 °F 36% 30.00 in 10.0 mi South 13.8 mph 18.4 mph N/A   Clear
1:15 PM 75.2 °F 48.2 °F 38% 29.99 in 10.0 mi South 10.4 mph 17.3 mph N/A   Scattered Clouds
1:20 PM 77.0 °F 48.2 °F 36% 29.99 in 10.0 mi South 9.2 mph 19.6 mph N/A   Scattered Clouds
1:38 PM 75.2 °F 46.4 °F 36% 29.98 in 10.0 mi South 15.0 mph 20.7 mph N/A   Scattered Clouds
1:56 PM 75.2 °F 44.6 °F 34% 29.98 in 10.0 mi South 11.5 mph 20.7 mph N/A   Clear
2:15 PM 75.2 °F 41.0 °F 29% 29.97 in 10.0 mi South 13.8 mph 19.6 mph N/A   Clear
2:16 PM 75.2 °F 41.0 °F 29% 29.97 in 10.0 mi SSW 13.8 mph - N/A   Clear
2:35 PM 75.2 °F 39.2 °F 27% 29.96 in 10.0 mi South 13.8 mph 20.7 mph N/A   Clear
2:59 PM 75.2 °F 39.2 °F 27% 29.95 in 10.0 mi South 13.8 mph - N/A   Clear
3:17 PM 75.2 °F 41.0 °F 29% 29.94 in 10.0 mi SSW 8.1 mph - N/A   Clear
3:35 PM 75.2 °F 41.0 °F 29% 29.94 in 10.0 mi SSW 5.8 mph 17.3 mph N/A   Clear
3:55 PM 75.2 °F 41.0 °F 29% 29.93 in 10.0 mi North - - N/A   Clear
3:56 PM 75.2 °F 41.0 °F 29% 29.93 in 10.0 mi South 5.8 mph - N/A   Clear
4:15 PM 75.2 °F 41.0 °F 29% 29.92 in 10.0 mi SSW 6.9 mph - N/A   Clear
4:20 PM 75.2 °F 41.0 °F 29% 29.92 in 10.0 mi South 10.4 mph - N/A   Clear
4:38 PM 75.2 °F 39.2 °F 27% 29.91 in 10.0 mi SE 10.4 mph - N/A   Clear
4:56 PM 75.2 °F 39.2 °F 27% 29.91 in 10.0 mi SSE 9.2 mph - N/A   Clear
5:15 PM 75.2 °F 39.2 °F 27% 29.91 in 10.0 mi South 10.4 mph - N/A   Clear
5:16 PM 75.2 °F 39.2 °F 27% 29.90 in 10.0 mi South 9.2 mph - N/A   Clear
5:35 PM 77.0 °F 39.2 °F 26% 29.90 in 10.0 mi SE 10.4 mph - N/A   Clear
5:59 PM 75.2 °F 41.0 °F 29% 29.89 in 10.0 mi SSE 9.2 mph 16.1 mph N/A   Clear
6:17 PM 73.4 °F 39.2 °F 29% 29.88 in 10.0 mi SE 8.1 mph - N/A   Clear
6:35 PM 73.4 °F 39.2 °F 29% 29.87 in 10.0 mi SSE 4.6 mph - N/A   Clear
6:36 PM 73.4 °F 39.2 °F 29% 29.87 in 10.0 mi SSE 4.6 mph - N/A   Clear
6:55 PM 75.2 °F 37.4 °F 25% 29.87 in 10.0 mi SSE 8.1 mph - N/A   Clear
7:15 PM 73.4 °F 33.8 °F 23% 29.86 in 10.0 mi SE 8.1 mph - N/A   Clear
7:38 PM 71.6 °F 35.6 °F 27% 29.86 in 10.0 mi SE 5.8 mph - N/A   Clear
7:56 PM 69.8 °F 41.0 °F 35% 29.86 in 10.0 mi Calm Calm - N/A   Mostly Cloudy
8:15 PM 68.0 °F 44.6 °F 43% 29.85 in 10.0 mi SE 3.5 mph - N/A   Mostly Cloudy
8:16 PM 68.0 °F 44.6 °F 43% 29.85 in 10.0 mi SE 3.5 mph - N/A   Mostly Cloudy
8:35 PM 68.0 °F 42.8 °F 40% 29.85 in 10.0 mi SE 4.6 mph - N/A   Clear
8:36 PM 68.0 °F 42.8 °F 40% 29.84 in 10.0 mi SE 4.6 mph - N/A   Clear
8:59 PM 68.0 °F 42.8 °F 40% 29.84 in 10.0 mi SE 5.8 mph - N/A   Clear
9:17 PM 68.0 °F 42.8 °F 40% 29.83 in 10.0 mi SE 4.6 mph - N/A   Scattered Clouds
9:35 PM 68.0 °F 42.8 °F 40% 29.83 in 10.0 mi ESE 4.6 mph - N/A   Scattered Clouds
9:55 PM 66.2 °F 42.8 °F 43% 29.82 in 10.0 mi ESE 5.8 mph - N/A   Clear
9:56 PM 66.2 °F 42.8 °F 43% 29.82 in 10.0 mi ESE 5.8 mph - N/A   Clear
10:15 PM 66.2 °F 42.8 °F 43% 29.82 in 10.0 mi ESE 4.6 mph - N/A   Clear
10:20 PM 66.2 °F 42.8 °F 43% 29.81 in 10.0 mi ESE 4.6 mph - N/A   Clear
10:38 PM 66.2 °F 42.8 °F 43% 29.80 in 10.0 mi ESE 5.8 mph - N/A   Scattered Clouds
10:56 PM 66.2 °F 42.8 °F 43% 29.79 in 10.0 mi ESE 8.1 mph - N/A   Scattered Clouds
11:15 PM 66.2 °F 41.0 °F 40% 29.79 in 10.0 mi SE 6.9 mph - N/A   Scattered Clouds
11:16 PM 66.2 °F 41.0 °F 40% 29.79 in 10.0 mi SE 8.1 mph - N/A   Scattered Clouds
11:35 PM 66.2 °F 42.8 °F 43% 29.78 in 10.0 mi ESE 5.8 mph - N/A   Overcast
11:36 PM 66.2 °F 42.8 °F 43% 29.78 in 10.0 mi SE 5.8 mph - N/A Rain Light Rain
11:59 PM 64.4 °F 44.6 °F 49% 29.76 in 10.0 mi ESE 9.2 mph - N/A   Light Drizzle